User: anonymous   Login
Location: Limoges
(45.8500°N, 1.2500°E)
Time: 23:30:14
(UTC+02:00)
Language:

ISS - Orbit

View from above orbital plane
View from above orbital plane
View from above satellite
View from above satellite

Ground track
Ground track

The orbit data is extracted from the following two-line orbital elements,

1 25544U 98067A   21300.55766043  .00002878  00000-0  60782-4 0  9994
2 25544  51.6441  48.1987 0003924 146.0897 221.9613 15.48801868309110
Epoch (UTC): 27 October 2021 13:23:01
Eccentricity: 0.0003924
inclination: 51.6441°
perigee height: 417 km
apogee height: 423 km
right ascension of ascending node: 48.1987°
argument of perigee: 146.0897°
revolutions per day: 15.48801868
mean anomaly at epoch: 221.9613°
orbit number at epoch: 30911

The dashed part of the orbit path shows where the satellite is in the earth's shadow,  

DLR